Wind_Speed
8 9 9 10 11 11 12 12 12 12 12 14 14 13 12 13 14 13 13 14 13 13 13 13 12 11 12 11 11 11 10 10 10 10 10 11 11 11 11 11 11 10 11 11
8 8 8 9 10 11 12 12 11 11 12 14 14 14 13 13 13 14 14 13 13 13 13 12 11 11 11 12 11 11 11 11 10 11 11 11 11 11 11 11 11 11 11 11
8 8 9 9 10 10 11 12 11 11 11 13 14 13 13 13 14 14 13 12 12 12 11 11 11 11 11 11 11 11 11 12 12 12 12 11 11 11 11 10 11 11 11 11
9 9 10 11 11 12 11 12 13 12 12 13 14 14 12 13 13 13 13 13 13 12 11 12 12 11 11 11 11 11 12 12 12 13 12 12 12 11 11 11 11 11 11 11
10 11 11 11 12 13 12 13 14 13 13 14 14 15 12 13 13 13 13 14 13 12 12 12 12 12 12 11 11 12 11 11 12 12 12 12 12 11 11 11 12 12 12 11
12 13 13 12 13 13 13 13 13 14 14 15 14 15 12 13 13 13 13 14 14 13 12 12 12 12 12 12 11 12 12 11 11 11 12 12 11 12 12 12 12 12 12 12
14 14 14 14 14 15 15 15 16 16 16 15 15 15 14 14 14 14 14 14 14 13 13 12 12 12 12 12 12 11 11 11 11 11 11 12 12 12 12 12 12 12 13 13
14 14 15 15 15 15 15 16 16 17 17 15 14 15 14 15 15 14 14 14 12 12 13 12 12 12 12 13 13 12 11 11 11 12 12 13 13 13 13 13 13 13 13 13
15 14 14 15 15 16 17 16 16 17 16 15 14 15 14 14 14 14 13 13 12 12 12 12 12 12 12 12 13 12 12 12 12 13 13 13 13 13 13 13 13 13 14 13
16 16 15 16 17 17 17 17 17 17 17 17 15 14 14 14 14 15 15 14 13 12 13 12 13 13 13 13 14 14 14 14 14 14 14 14 13 14 14 14 14 14 14 14
17 17 17 18 18 18 18 17 17 17 17 17 17 15 15 15 16 16 15 14 14 13 14 14 14 14 14 14 14 14 15 15 15 15 15 15 14 15 15 14 14 14 14 14
19 19 18 19 19 19 19 19 19 19 19 19 18 16 16 16 17 17 16 16 16 15 15 14 14 14 14 14 14 14 15 15 16 17 16 15 15 15 15 15 14 14 14 14
21 22 21 20 20 20 21 21 20 20 21 20 20 18 16 17 17 17 16 16 17 16 16 15 14 14 14 14 15 15 16 16 16 16 16 16 17 16 16 15 15 14 14 14
23 23 23 22 22 22 22 21 21 22 22 22 21 19 18 18 18 17 17 17 18 17 16 15 15 15 14 14 14 14 15 15 15 15 16 16 16 16 15 15 14 15 15 15
25 25 25 24 23 23 23 22 23 23 23 24 22 22 20 19 20 20 19 19 18 18 17 16 16 16 15 14 14 15 15 15 15 15 15 15 15 15 15 15 15 16 16 16
27 27 26 25 24 24 24 23 23 24 24 24 24 23 22 22 22 21 20 20 19 19 19 18 17 17 16 15 15 16 15 15 15 16 16 16 16 16 16 16 16 16 16 17
29 28 28 27 26 26 26 24 24 25 25 25 25 24 24 23 23 23 21 21 21 20 20 19 18 18 18 17 16 17 16 16 16 16 17 17 17 17 17 16 16 16 16 17
29 29 30 29 28 28 26 25 26 26 26 27 27 26 25 24 23 22 21 21 21 21 21 20 20 19 19 18 17 18 17 17 17 17 17 16 17 18 18 17 17 17 17 17
31 31 31 31 30 29 28 27 27 27 27 27 27 27 26 25 24 23 22 21 20 20 20 20 19 18 18 18 18 18 18 18 17 17 17 17 18 19 19 19 18 18 18 18
31 31 31 32 31 30 28 28 28 29 29 28 28 27 26 25 25 23 23 23 22 21 21 20 20 20 20 20 19 19 19 19 18 18 18 18 18 18 20 20 19 19 19 19
32 31 31 31 31 31 30 29 29 29 28 28 28 26 26 26 26 25 25 24 24 23 22 22 22 22 22 22 22 21 21 21 20 20 19 19 19 19 20 20 20 20 20 19
31 31 31 32 32 32 31 30 30 29 29 28 27 27 27 27 27 26 26 25 25 24 24 24 24 23 23 23 23 23 23 22 22 22 21 21 21 21 21 21 20 20 20 19
32 32 32 32 32 32 32 31 30 30 29 28 28 27 27 27 27 28 27 26 26 26 25 26 26 26 25 25 25 25 25 25 24 23 22 22 22 22 22 22 21 21 21 20
31 32 32 32 32 32 32 31 31 31 30 29 28 28 28 27 27 28 27 26 25 25 26 26 26 26 26 25 26 27 27 27 26 25 24 24 23 22 22 22 22 22 21 21
29 30 31 31 32 32 32 32 31 31 31 31 30 30 29 29 28 28 27 27 26 26 26 26 25 26 27 26 26 26 27 27 27 26 26 25 24 23 24 23 23 22 22 22
28 29 30 30 31 31 32 32 32 31 31 32 31 30 30 29 28 28 27 27 26 26 26 26 26 25 25 26 26 26 25 27 27 26 25 25 25 24 24 24 24 23 23 23
Wind_Direction
265 269 274 273 270 268 270 270 271 269 271 271 272 276 280 280 283 285 287 288 288 289 289 290 291 289 289 284 275 268 266 264 262 261 258 257 256 252 250 252 254 257 258 258
264 269 267 268 270 270 275 279 280 273 274 278 280 278 282 283 284 288 288 287 287 284 284 289 290 285 283 282 276 270 264 263 262 259 255 255 254 251 249 249 253 256 257 257
265 269 264 270 273 274 279 282 281 279 278 282 280 280 285 287 288 287 286 284 284 286 284 284 287 283 279 278 273 270 265 262 260 257 254 254 254 250 249 248 251 254 257 260
261 264 266 269 270 271 274 279 279 277 277 280 281 283 285 288 289 288 284 282 281 283 284 285 284 284 280 276 271 267 269 261 258 257 257 256 255 252 248 246 251 256 258 260
261 263 267 269 274 277 280 284 282 280 280 280 283 287 288 286 292 291 288 285 282 280 283 285 284 282 278 273 268 270 271 262 260 256 254 254 255 253 249 247 250 253 257 261
258 262 269 274 276 282 284 288 288 285 282 283 284 286 287 289 295 295 291 288 286 279 278 281 282 279 276 271 267 269 269 266 262 260 256 254 255 254 252 247 247 251 257 261
257 262 269 271 274 279 282 287 289 288 284 285 283 282 286 287 292 293 291 290 288 284 281 281 280 277 274 269 269 267 267 269 264 262 260 259 257 254 251 250 250 252 257 260
262 264 268 270 275 280 282 286 289 289 288 284 281 281 286 286 288 290 290 287 285 286 286 283 278 273 269 265 264 262 263 266 263 263 263 261 256 254 251 253 254 254 257 260
269 269 272 273 276 280 284 285 285 285 284 282 282 283 283 286 288 291 292 287 285 286 284 281 275 270 266 264 264 260 261 264 262 262 260 259 257 255 252 253 255 256 258 261
270 271 272 274 274 275 279 282 282 282 284 285 282 284 285 286 288 291 291 286 285 288 288 283 275 272 267 265 261 259 260 260 261 261 259 259 257 256 252 252 253 256 259 260
269 272 273 274 275 273 275 277 276 277 280 284 284 285 284 284 284 286 288 288 288 291 289 286 279 273 270 268 264 260 260 260 261 260 259 257 256 256 252 250 251 255 258 260
268 269 269 271 272 271 273 275 274 273 276 279 280 283 282 282 282 283 285 287 290 291 290 285 278 274 273 271 267 264 262 260 261 261 256 255 254 252 250 250 250 254 257 259
267 267 267 268 269 270 272 274 274 274 274 276 275 278 280 280 281 285 284 286 288 289 287 282 275 271 271 269 268 267 265 261 259 258 255 253 252 252 249 246 249 254 256 260
266 267 268 269 272 272 272 272 272 273 273 274 274 275 275 277 281 284 283 283 285 285 284 279 274 274 273 271 270 269 266 262 260 254 250 248 248 247 249 249 252 256 257 260
264 266 267 269 269 268 269 270 270 271 273 274 274 274 276 278 278 280 279 280 281 281 282 278 276 272 270 269 267 266 262 259 257 252 245 244 244 245 249 250 254 258 258 260
265 267 268 267 265 266 267 268 269 271 273 274 275 275 278 277 280 280 279 278 278 277 277 274 273 268 264 262 265 263 258 256 253 249 246 248 248 248 250 251 255 259 258 262
266 267 267 267 267 267 266 268 270 270 271 274 276 277 278 278 278 278 277 277 276 276 275 272 271 269 266 262 264 266 264 261 257 253 251 251 251 250 250 253 258 260 262 265
264 264 266 266 265 265 269 269 269 270 271 272 274 276 277 277 277 278 277 276 274 272 273 274 273 268 266 264 265 263 260 261 261 259 257 255 253 252 252 255 257 259 261 264
264 265 264 264 264 265 267 269 270 270 269 271 274 275 275 276 276 277 279 277 275 274 274 275 274 272 266 263 264 261 258 258 259 258 255 255 256 255 255 256 258 260 263 266
263 264 264 264 264 265 267 268 268 268 268 270 273 275 273 274 274 275 275 273 270 270 273 273 271 270 266 263 262 262 260 257 256 257 256 255 256 256 256 256 258 260 264 266
264 264 264 264 264 264 266 267 267 268 270 271 272 272 271 272 275 275 274 273 269 267 267 268 269 269 266 262 261 260 259 257 256 256 256 253 254 255 255 256 257 260 264 267
263 263 262 262 262 264 265 266 265 268 269 270 271 271 271 272 273 274 273 272 270 268 267 266 268 268 264 260 258 259 258 257 255 254 255 254 252 254 255 256 258 261 264 267
262 263 263 263 263 264 265 264 265 266 268 269 268 268 269 271 273 273 273 272 271 269 268 266 266 266 265 261 259 258 257 257 255 253 254 256 255 253 255 256 259 262 264 266
263 262 264 264 263 264 265 264 264 264 266 268 268 269 270 271 273 274 273 272 271 270 269 268 268 267 264 263 261 259 257 255 254 253 253 255 256 256 257 258 260 263 265 265
264 263 264 264 264 263 262 263 264 264 265 266 267 268 269 271 271 271 272 272 272 272 270 270 269 267 263 262 261 260 258 255 251 250 250 251 252 253 255 257 260 262 264 265
264 264 264 265 266 265 264 263 263 264 265 265 265 266 268 269 269 269 270 270 271 271 271 271 268 267 265 263 263 262 259 255 250 247 247 250 251 252 253 256 259 262 265 266
Height
5843 5844 5843 5843 5843 5843 5843 5843 5843 5843 5843 5842 5842 5841 5842 5840 5840 5839 5838 5837 5837 5836 5835 5835 5834 5833 5833 5833 5832 5833 5833 5834 5834 5835 5835 5836 5837 5837 5838 5838 5839 5840 5841 5841
5842 5842 5842 5841 5841 5841 5841 5841 5841 5841 5840 5840 5839 5839 5838 5837 5837 5836 5835 5834 5833 5833 5832 5831 5831 5830 5830 5829 5829 5829 5830 5831 5831 5832 5832 5833 5834 5835 5835 5836 5837 5837 5838 5839
5839 5840 5839 5839 5839 5838 5838 5838 5838 5837 5837 5836 5836 5836 5835 5834 5833 5833 5832 5831 5830 5830 5829 5828 5828 5827 5826 5826 5826 5827 5827 5828 5828 5828 5829 5830 5831 5832 5833 5833 5834 5835 5835 5836
5837 5837 5837 5836 5836 5835 5836 5836 5835 5834 5834 5833 5833 5832 5833 5831 5830 5830 5829 5828 5828 5827 5826 5825 5824 5824 5823 5823 5823 5824 5824 5824 5824 5825 5826 5827 5828 5829 5830 5830 5831 5832 5833 5833
5834 5834 5833 5833 5834 5832 5832 5832 5832 5831 5831 5830 5830 5829 5830 5828 5828 5827 5826 5825 5824 5824 5823 5822 5821 5821 5820 5820 5821 5821 5821 5821 5821 5822 5823 5824 5825 5826 5826 5827 5828 5829 5830 5830
5831 5830 5830 5830 5830 5829 5829 5829 5828 5828 5828 5828 5827 5826 5827 5826 5825 5824 5823 5822 5821 5820 5820 5819 5818 5818 5817 5817 5817 5817 5817 5817 5818 5819 5820 5821 5822 5823 5824 5824 5825 5826 5826 5827
5827 5827 5827 5827 5826 5826 5826 5826 5825 5824 5824 5824 5824 5823 5824 5823 5822 5821 5820 5819 5818 5817 5817 5816 5815 5814 5814 5814 5814 5814 5814 5814 5815 5816 5817 5818 5819 5820 5821 5821 5822 5823 5823 5824
5824 5824 5823 5823 5823 5823 5822 5822 5822 5821 5820 5820 5820 5819 5821 5819 5818 5817 5816 5815 5814 5814 5813 5812 5811 5811 5810 5810 5811 5811 5811 5812 5812 5813 5814 5815 5816 5817 5817 5818 5819 5819 5820 5820
5820 5820 5820 5819 5819 5819 5818 5818 5818 5817 5816 5816 5816 5816 5817 5816 5815 5814 5813 5812 5811 5810 5809 5809 5808 5807 5807 5807 5807 5807 5808 5808 5809 5810 5811 5811 5812 5813 5814 5815 5815 5816 5816 5817
5815 5816 5816 5816 5815 5815 5815 5814 5814 5813 5812 5812 5813 5813 5813 5813 5811 5811 5809 5808 5807 5807 5806 5805 5804 5804 5804 5804 5804 5804 5804 5804 5805 5806 5806 5807 5808 5809 5810 5811 5812 5812 5813 5813
5811 5812 5812 5812 5811 5811 5811 5810 5809 5809 5809 5809 5808 5811 5809 5809 5808 5807 5805 5804 5803 5803 5802 5801 5800 5800 5799 5800 5800 5800 5800 5800 5801 5801 5802 5803 5804 5805 5806 5807 5808 5808 5809 5809
5806 5807 5807 5807 5807 5806 5806 5806 5805 5806 5805 5804 5804 5808 5805 5805 5803 5802 5801 5800 5799 5798 5798 5797 5796 5795 5795 5795 5795 5795 5795 5795 5796 5796 5797 5799 5800 5801 5802 5803 5803 5804 5805 5806
5801 5801 5801 5802 5804 5802 5801 5801 5801 5801 5800 5799 5799 5803 5801 5800 5799 5798 5797 5796 5795 5794 5793 5792 5791 5791 5790 5790 5790 5790 5790 5790 5791 5792 5793 5794 5795 5796 5797 5799 5799 5800 5801 5802
5795 5795 5796 5797 5797 5796 5796 5796 5796 5795 5795 5794 5795 5796 5796 5795 5794 5793 5792 5791 5790 5789 5788 5787 5787 5786 5785 5785 5785 5785 5785 5786 5786 5787 5789 5790 5791 5792 5793 5794 5795 5796 5798 5798
5789 5789 5789 5789 5790 5790 5790 5790 5790 5790 5789 5789 5789 5789 5790 5790 5789 5788 5787 5786 5785 5784 5783 5782 5782 5781 5781 5781 5781 5781 5781 5781 5782 5783 5784 5785 5786 5788 5789 5790 5791 5792 5793 5794
5781 5782 5782 5783 5783 5783 5783 5784 5784 5784 5783 5783 5783 5783 5784 5783 5782 5781 5780 5780 5779 5778 5778 5777 5777 5776 5776 5776 5777 5776 5776 5777 5778 5778 5779 5781 5782 5783 5785 5786 5787 5788 5789 5790
5774 5775 5775 5775 5776 5776 5776 5778 5778 5778 5777 5777 5776 5777 5777 5776 5775 5775 5774 5773 5773 5772 5772 5771 5771 5771 5771 5771 5772 5772 5773 5773 5774 5774 5775 5776 5777 5779 5780 5782 5783 5784 5784 5785
5766 5767 5767 5768 5769 5769 5772 5771 5771 5770 5770 5770 5769 5770 5770 5770 5769 5768 5767 5767 5767 5767 5766 5766 5765 5765 5766 5766 5767 5767 5768 5769 5769 5770 5770 5771 5773 5774 5776 5777 5778 5779 5779 5780
5758 5759 5759 5760 5760 5761 5763 5764 5763 5763 5763 5763 5762 5762 5762 5762 5762 5762 5761 5760 5760 5760 5760 5760 5760 5760 5760 5761 5761 5762 5763 5764 5765 5766 5766 5767 5768 5769 5771 5772 5773 5774 5774 5775
5750 5750 5751 5751 5752 5753 5756 5756 5755 5756 5755 5756 5755 5755 5756 5755 5756 5756 5755 5754 5754 5754 5754 5754 5754 5755 5755 5756 5756 5757 5758 5759 5760 5760 5761 5762 5763 5764 5765 5766 5767 5768 5769 5769
5741 5742 5743 5743 5743 5744 5747 5747 5747 5748 5749 5748 5748 5748 5748 5748 5749 5749 5748 5747 5747 5747 5747 5747 5748 5748 5749 5750 5750 5751 5752 5753 5754 5755 5756 5756 5757 5758 5759 5760 5761 5762 5763 5764
5731 5732 5734 5734 5735 5738 5738 5738 5739 5739 5739 5739 5739 5740 5740 5740 5741 5741 5740 5740 5740 5740 5740 5740 5741 5741 5742 5743 5744 5745 5746 5747 5748 5749 5750 5751 5752 5753 5753 5755 5755 5756 5757 5758
5721 5723 5724 5726 5728 5728 5728 5729 5730 5730 5731 5731 5731 5732 5732 5732 5733 5732 5732 5732 5732 5732 5732 5732 5733 5733 5734 5735 5736 5737 5738 5739 5740 5742 5743 5744 5745 5746 5748 5749 5750 5751 5751 5751
5712 5713 5715 5716 5717 5718 5719 5720 5721 5721 5722 5723 5723 5723 5723 5724 5724 5724 5724 5724 5724 5724 5724 5724 5725 5725 5726 5727 5728 5729 5730 5731 5733 5734 5736 5737 5738 5739 5741 5742 5744 5745 5745 5745
5704 5704 5705 5706 5708 5708 5709 5710 5711 5712 5713 5714 5714 5715 5715 5716 5716 5716 5716 5716 5716 5716 5716 5716 5717 5717 5718 5719 5719 5720 5721 5722 5724 5726 5728 5730 5731 5733 5734 5735 5737 5738 5738 5739
5695 5695 5696 5697 5698 5698 5700 5700 5701 5702 5703 5704 5705 5706 5707 5707 5708 5708 5708 5708 5708 5708 5708 5708 5708 5709 5710 5710 5711 5711 5712 5714 5716 5718 5720 5722 5723 5725 5727 5728 5730 5730 5731 5732